Janesville, WI

4:06 AM CDT on July 21, 2017 (GMT -0500)
Rock County

Weather History for KJVL - November, 2013

Change the Weather History Date:

Saturday, November 9, 2013

  Actual Average Record
Temperature  
Mean Temperature 48 °F -  
Max Temperature 57 °F 50 °F 73 °F (1999)
Min Temperature 37 °F 32 °F 8 °F (1991)
Degree Days  
Heating Degree Days 17    
Moisture  
Dew Point 32 °F    
Average Humidity 56    
Maximum Humidity 66    
Minimum Humidity 42    
Precipitation  
Precipitation 0.00 in - - ()
Sea Level Pressure  
Sea Level Pressure 29.90 in    
Wind  
Wind Speed 19 mph (WSW)    
Max Wind Speed 37 mph    
Max Gust Speed 44 mph    
Visibility 10 miles    
Events      
Averages and records for this station are not official NWS values.
T = Trace of Precipitation, MM = Missing Value Source: NWS Daily Summary

Daily Weather History Graph

Daily Weather History Graph

Search for Another Location

Airport or City:

Trip Planner

Search our weather history database for the weather conditions in past years. The results will help you decide how hot, cold, wet, or windy it might be!

Date:

Astronomy

Nov. 09, 2013 Rise Set
Actual Time 6:40 AM CST 4:39 PM CST
Civil Twilight 6:10 AM CST 5:09 PM CST
Nautical Twilight 5:36 AM CST 5:42 PM CST
Astronomical Twilight 5:03 AM CST 6:15 PM CST
Moon 12:15 PM CST (11/9) 11:11 PM CST (11/9)
Length of Visible Light 10h 58m
Length of Day
9h 58m
Waxing Crescent, 44% of the Moon is Illuminated
Nov 9
Waxing Crescent
Nov 9
First Quarter
Nov 17
Full
Nov 25
Last Quarter
Dec 2
New

Hourly Weather History & Observations

Time (CST) Temp. Windchill Dew Point Humidity Pressure Visibility Wind Dir Wind Speed Gust Speed Precip Events Conditions
12:15 AM 46.4 °F 39.0 °F 32.0 °F 57% 29.81 in 10.0 mi South 19.6 mph 27.6 mph N/A   Overcast
12:35 AM 46.4 °F 39.0 °F 32.0 °F 57% 29.81 in 10.0 mi South 19.6 mph 25.3 mph N/A   Scattered Clouds
12:55 AM 46.4 °F 39.8 °F 32.0 °F 57% 29.81 in 10.0 mi SSW 16.1 mph 24.2 mph N/A   Scattered Clouds
1:15 AM 50.0 °F - 32.0 °F 50% 29.79 in 10.0 mi SSW 21.9 mph 31.1 mph N/A   Scattered Clouds
1:35 AM 50.0 °F - 32.0 °F 50% 29.80 in 10.0 mi SSW 21.9 mph 34.5 mph N/A   Clear
1:55 AM 48.2 °F - 32.0 °F 54% 29.80 in 10.0 mi SSW 21.9 mph 28.8 mph N/A   Clear
2:15 AM 48.2 °F - 32.0 °F 54% 29.79 in 10.0 mi SSW 21.9 mph 28.8 mph N/A   Scattered Clouds
2:35 AM 46.4 °F 38.7 °F 32.0 °F 57% 29.79 in 10.0 mi SSW 20.7 mph 25.3 mph N/A   Scattered Clouds
2:55 AM 46.4 °F 39.8 °F 33.8 °F 62% 29.79 in 10.0 mi SW 16.1 mph 20.7 mph N/A   Clear
3:15 AM 46.4 °F 39.8 °F 33.8 °F 62% 29.78 in 10.0 mi SSW 16.1 mph 20.7 mph N/A   Clear
3:35 AM 44.6 °F 38.4 °F 33.8 °F 66% 29.78 in 10.0 mi SW 12.7 mph 18.4 mph N/A   Clear
3:55 AM 44.6 °F 38.4 °F 33.8 °F 66% 29.78 in 10.0 mi SSW 12.7 mph 18.4 mph N/A   Scattered Clouds
4:15 AM 46.4 °F 40.1 °F 33.8 °F 62% 29.78 in 10.0 mi SW 15.0 mph - N/A   Mostly Cloudy
4:35 AM 46.4 °F 40.4 °F 33.8 °F 62% 29.78 in 10.0 mi SW 13.8 mph - N/A   Scattered Clouds
5:45 AM 46.4 °F 41.1 °F 35.6 °F 66% 29.79 in 10.0 mi SW 11.5 mph 19.6 mph N/A   Clear
6:45 AM 46.4 °F 42.4 °F 35.6 °F 66% 29.81 in 10.0 mi WSW 8.1 mph - N/A   Mostly Cloudy
7:45 AM 48.2 °F - 37.4 °F 66% 29.81 in 10.0 mi West 17.3 mph 21.9 mph N/A   Mostly Cloudy
8:45 AM 51.8 °F - 37.4 °F 58% 29.83 in 10.0 mi West 21.9 mph 29.9 mph N/A   Scattered Clouds
9:45 AM 53.6 °F - 37.4 °F 54% 29.84 in 10.0 mi West 15.0 mph 25.3 mph N/A   Clear
10:45 AM 53.6 °F - 37.4 °F 54% 29.85 in 10.0 mi West 20.7 mph 28.8 mph N/A   Mostly Cloudy
11:45 AM 53.6 °F - 37.4 °F 54% 29.85 in 10.0 mi West 20.7 mph 28.8 mph N/A   Overcast
12:45 PM 57.2 °F - 37.4 °F 48% 29.85 in 10.0 mi West 20.7 mph 31.1 mph N/A   Scattered Clouds
1:45 PM 55.4 °F - 35.6 °F 47% 29.88 in 10.0 mi West 20.7 mph 31.1 mph N/A   Mostly Cloudy
2:45 PM 53.6 °F - 35.6 °F 51% 29.90 in 10.0 mi West 20.7 mph 32.2 mph N/A   Mostly Cloudy
3:45 PM 53.6 °F - 35.6 °F 51% 29.92 in 10.0 mi West 21.9 mph 28.8 mph N/A   Clear
4:45 PM 50.0 °F - 33.8 °F 54% 29.95 in 10.0 mi West 20.7 mph 26.5 mph N/A   Partly Cloudy
5:45 PM 48.2 °F - 35.6 °F 62% 29.98 in 10.0 mi West 17.3 mph 23.0 mph N/A   Clear
6:45 PM 48.2 °F - 33.8 °F 58% 30.01 in 10.0 mi West 18.4 mph 24.2 mph N/A   Mostly Cloudy
8:35 PM 44.6 °F 37.8 °F 32.0 °F 61% 30.03 in 10.0 mi West 15.0 mph 23.0 mph N/A   Overcast
8:45 PM 46.4 °F 36.3 °F 30.2 °F 53% 30.04 in 10.0 mi WNW 36.8 mph 43.7 mph N/A   Overcast
8:55 PM 44.6 °F 34.6 °F 28.4 °F 53% 30.04 in 10.0 mi NW 31.1 mph 39.1 mph N/A   Mostly Cloudy
9:15 PM 42.8 °F 33.5 °F 21.2 °F 42% 30.05 in 10.0 mi WNW 23.0 mph 34.5 mph N/A   Scattered Clouds
9:35 PM 41.0 °F 31.4 °F 23.0 °F 49% 30.06 in 10.0 mi WNW 21.9 mph 33.4 mph N/A   Clear
9:55 PM 41.0 °F 32.5 °F 23.0 °F 49% 30.06 in 10.0 mi West 17.3 mph 23.0 mph N/A   Clear
10:15 PM 41.0 °F 33.5 °F 23.0 °F 49% 30.07 in 10.0 mi WNW 13.8 mph 21.9 mph N/A   Clear
10:35 PM 39.2 °F 32.0 °F 23.0 °F 52% 30.08 in 10.0 mi WNW 11.5 mph 18.4 mph N/A   Clear
10:55 PM 41.0 °F 32.8 °F 24.8 °F 53% 30.08 in 10.0 mi WNW 16.1 mph 23.0 mph N/A   Scattered Clouds
11:15 PM 41.0 °F 33.5 °F 24.8 °F 53% 30.08 in 10.0 mi West 13.8 mph - N/A   Overcast
11:35 PM 39.2 °F 31.6 °F 24.8 °F 56% 30.09 in 10.0 mi West 12.7 mph 18.4 mph N/A   Mostly Cloudy
11:55 PM 37.4 °F 30.3 °F 24.8 °F 60% 30.10 in 10.0 mi West 10.4 mph - N/A   Scattered Clouds